Presure
171 156 180 162 150 141 108 154 142 126 114 131 183 169 151 130 146 149 199 150 167 121 162 165 155 162 183 149 129 142 155 131 136 173 134 170 158 181 163 188 183 163 190 154 178 183 126 133 224 224 185 138 120 145
180 193 187 192 158 113 113 169 135 150 114 118 163 116 176 201 157 121 120 150 127 131 143 161 129 154 199 166 146 177 176 123 171 124 154 153 170 153 183 179 167 156 156 206 150 193 133 171 136 134 134 133 136 140
168 105 127 199 137 191 192 145 172 148 193 133 181 189 157 131 183 111 168 179 171 189 138 160 186 186 163 187 137 169 137 130 125 113 149 166 155 158 176 141 180 158 181 186 186 154 202 155 145 133 121 196 217 141
181 156 181 173 167 171 207 162 195 199 152 140 175 166 119 194 128 177 183 177 141 150 139 151 177 146 141 155 159 177 133 145 160 180 151 170 166 180 168 153 156 171 141 176 194 218 249 237 226 227 191 157 231 224
187 174 173 138 175 183 146 167 148 155 163 190 158 179 167 136 148 167 137 164 140 200 114 169 159 121 135 183 167 207 156 186 179 160 172 183 196 172 185 137 172 188 121 128 131 183 173 178 231 193 230 220 234 228
191 198 178 165 168 173 180 182 179 182 127 164 168 126 123 199 179 146 133 153 145 205 133 118 161 139 212 152 144 182 190 178 171 188 169 168 169 179 161 186 135 116 171 186 190 285 250 243 128 224 213 253 237 224
199 182 193 183 180 198 191 184 173 187 199 171 207 194 189 185 182 187 194 134 155 140 150 164 207 148 154 198 203 219 160 189 188 131 176 195 163 222 227 110 182 166 173 132 127 143 230 215 202 214 223 227 228 223
201 200 198 198 199 190 204 210 151 201 165 200 194 201 196 164 166 214 171 172 178 126 206 211 176 169 185 181 178 196 215 221 173 184 212 210 214 205 133 141 146 158 184 200 209 123 159 167 199 199 234 236 234 173
197 197 204 201 197 192 161 171 209 195 204 210 202 201 196 161 161 161 209 194 209 211 187 197 176 175 178 163 186 213 173 190 192 204 221 220 235 109 211 138 105 105 120 147 257 144 193 188 205 214 228 239 232 224
201 202 197 194 153 161 208 211 207 208 203 213 208 216 213 216 191 217 217 209 219 193 180 227 205 215 179 179 134 184 189 168 226 181 169 229 252 135 123 139 117 87 152 120 241 231 192 207 254 245 235 241 147 231
203 203 192 210 206 189 206 202 212 214 202 201 182 203 195 193 201 188 215 221 194 201 198 174 197 197 182 201 257 198 153 219 240 122 213 190 132 127 196 109 105 139 236 215 244 239 220 218 246 237 234 244 248 247
205 209 215 211 205 210 207 207 205 213 214 214 217 191 197 223 211 199 212 218 214 222 182 204 198 171 193 223 236 229 194 205 252 229 246 249 203 115 99 97 160 135 195 215 249 238 226 250 141 216 245 246 200 246
210 198 208 215 200 214 194 194 204 215 206 214 220 194 210 217 213 196 215 223 213 95 265 242 196 250 198 243 246 217 244 192 264 285 277 82 96 246 229 255 280 156 133 250 258 228 182 255 151 251 231 225 215 214
218 214 218 198 230 225 212 216 216 214 192 216 205 240 238 238 241 236 285 231 211 236 213 248 242 203 276 263 271 268 273 283 285 265 159 280 97 272 292 306 295 285 287 310 302 294 274 238 250 241 225 223 217 231
214 216 214 277 221 233 200 227 250 213 202 281 209 245 214 211 197 206 203 194 233 203 162 242 193 289 285 277 283 278 270 246 246 313 183 348 216 331 362 363 360 350 340 341 261 264 286 253 234 235 232 219 231 238
272 284 280 270 261 242 231 214 245 226 235 217 256 225 238 251 283 259 300 301 286 366 365 343 292 365 360 345 353 306 288 295 318 279 314 332 309 327 302 342 331 331 330 321 332 314 326 325 214 228 243 214 249 271
165 257 175 271 159 165 171 231 171 258 190 184 235 173 168 389 381 362 338 318 235 331 315 337 348 358 359 356 354 247 287 355 341 333 330 305 335 331 330 334 328 314 302 304 309 313 322 299 294 248 270 249 269 260
336 305 209 269 254 247 254 283 278 334 313 297 246 257 285 265 324 361 256 354 359 372 381 363 345 345 321 368 370 359 338 322 322 321 325 326 329 323 313 308 302 293 289 297 295 299 302 289 278 266 266 261 221 236
374 381 363 281 296 213 278 310 313 331 332 335 331 297 343 333 346 352 351 357 348 302 307 356 369 369 357 264 315 303 310 319 327 325 323 314 308 297 292 286 283 280 275 278 278 278 278 266 276 244 258 234 280 257
349 348 344 340 337 325 325 333 341 341 346 350 353 344 341 334 322 320 313 306 301 299 299 305 306 297 290 289 293 296 298 305 303 296 293 292 271 283 283 282 267 275 269 264 262 247 243 244 231 247 266 275 249 265
334 327 330 332 331 334 335 331 326 321 313 313 311 307 272 271 276 279 280 282 281 314 281 275 264 264 267 269 261 254 262 263 253 255 257 259 271 249 227 225 227 230 225 244 236 238 247 300 246 272 251 245 265 244
470 475 457 441 437 436 447 470 464 463 477 383 486 460 433 437 437 429 444 452 466 483 469 455 444 428 424 415 415 415 386 310 279 267 261 261 293 266 270 263 247 245 269 288 309 297 296 285 274 241 248 246 252 259
443 436 420 410 413 416 417 437 439 428 451 455 438 428 424 412 417 425 439 448 446 427 416 415 412 405 403 399 396 391 399 401 401 401 397 392 394 390 385 427 346 395 341 318 319 274 276 262 249 255 256 251 262 252
416 404 403 404 411 408 417 422 427 392 436 418 412 397 392 402 427 417 418 412 396 394 387 386 389 390 391 387 385 384 388 392 390 388 386 385 382 371 414 416 392 371 295 318 256 287 274 261 254 257 253 250 239 246
386 372 395 393 405 414 408 429 442 418 412 392 384 388 393 399 389 399 388 377 372 374 374 372 373 376 373 374 379 380 377 375 376 378 369 374 384 394 392 422 396 349 335 294 301 262 275 257 241 263 250 252 238 245
404 398 410 432 415 427 426 403 392 382 377 376 386 379 371 375 378 371 369 367 364 363 363 362 361 366 369 369 371 371 365 366 371 366 380 382 377 402 402 389 373 316 330 313 260 270 250 262 263 248 262 233 265 256
404 415 422 425 409 392 376 371 377 383 379 363 361 367 362 361 365 363 358 354 354 355 354 357 357 360 361 368 369 362 362 369 364 386 374 370 393 391 392 365 341 318 307 267 281 281 274 267 261 245 262 245 258 247
360 372 366 358 359 376 381 376 369 364 374 369 362 357 357 352 352 354 351 352 350 349 350 353 352 354 357 355 355 350 380 368 367 384 359 371 376 376 375 370 333 344 322 312 290 277 261 264 256 269 242 263 243 260
365 368 372 357 364 361 359 357 357 354 352 350 349 346 348 345 341 340 339 337 336 336 339 337 335 336 337 343 350 352 368 359 318 388 336 381 374 366 364 316 351 320 316 280 265 249 275 268 268 265 260 255 260 251
349 351 353 354 352 348 343 343 341 338 338 339 336 336 332 330 328 329 329 331 334 336 340 344 347 346 346 345 347 352 358 362 359 367 359 378 376 356 325 290 293 297 297 258 263 287 277 266 277 265 255 262 249 240
338 340 334 331 334 334 334 334 334 333 334 331 329 327 326 328 329 329 328 328 327 326 326 325 325 327 340 373 378 392 384 382 361 371 361 371 364 349 349 346 337 267 299 307 304 285 267 267 259 265 254 246 258 257
390 340 331 328 326 329 328 327 329 329 328 328 329 329 328 326 325 323 321 318 318 356 363 366 368 369 370 371 368 370 378 375 371 388 365 391 358 343 343 339 334 285 316 297 278 275 278 260 262 264 263 259 251 252
347 359 370 376 375 377 379 352 348 347 345 344 359 363 359 355 355 351 351 350 352 347 350 358 361 359 357 359 355 357 357 364 369 366 361 379 355 335 326 332 325 304 309 296 279 285 263 277 278 272 262 250 252 264
Wind_Speed
69 69 77 71 64 60 29 60 44 39 19 37 69 47 37 33 45 41 72 39 45 29 50 62 50 62 67 34 22 63 57 13 23 78 32 90 80 88 80 90 89 92 103 50 98 75 54 59 108 107 85 63 37 63
73 81 80 83 74 39 39 69 44 72 26 30 53 26 56 73 69 25 27 51 33 35 51 45 31 73 67 50 53 64 67 27 80 44 60 58 89 68 89 86 93 87 79 96 43 109 55 78 60 59 58 48 48 61
70 44 51 89 62 86 86 71 75 73 84 50 63 71 76 51 65 25 61 63 64 63 49 70 62 69 58 67 36 76 59 46 43 48 57 88 64 70 95 75 89 82 97 101 99 63 101 69 61 55 36 94 97 50
83 68 79 74 72 73 88 70 87 89 61 70 71 66 37 79 59 65 64 70 41 51 53 65 65 59 57 65 77 84 54 59 85 95 58 74 70 96 78 83 67 109 66 106 82 102 101 99 100 98 79 69 98 76
95 83 82 65 80 85 73 73 70 74 73 85 74 78 79 57 62 74 52 79 63 91 39 75 79 52 72 87 95 86 81 96 92 72 86 98 97 89 97 58 99 94 32 47 52 71 67 79 92 75 92 93 93 88
96 102 89 74 81 84 87 88 85 90 63 84 88 58 54 87 84 92 68 65 85 89 50 58 83 82 79 78 78 101 102 104 77 112 91 89 94 97 74 72 90 41 103 103 104 90 90 91 43 90 92 86 88 93
110 96 99 87 92 100 92 92 89 93 99 90 98 87 85 87 95 92 91 64 94 71 56 87 80 93 94 91 96 98 80 111 113 71 106 108 81 103 100 30 115 88 98 49 58 61 90 96 91 92 93 92 90 85
117 112 111 110 104 90 106 109 84 95 93 92 100 94 89 80 77 106 78 96 96 49 102 107 100 100 84 98 103 100 101 117 97 104 96 101 110 92 73 76 78 71 105 82 102 40 67 70 89 81 94 90 87 59
117 112 123 116 106 92 86 93 117 96 111 119 103 97 98 93 99 98 113 105 104 113 105 94 100 86 94 107 111 107 79 109 105 104 98 96 103 41 91 85 20 21 32 45 92 63 82 84 93 89 88 87 87 88
129 124 114 105 85 93 126 129 121 121 111 127 120 131 126 132 113 127 130 114 125 96 109 119 110 118 122 116 75 116 115 75 109 109 78 93 96 76 11 40 9 17 72 44 95 95 94 94 88 90 91 89 42 87
130 128 107 138 134 96 133 127 136 134 119 124 101 116 98 102 107 113 133 135 109 115 109 111 113 116 108 115 129 121 70 118 116 67 104 112 39 40 94 30 22 50 91 102 93 96 84 84 87 91 90 87 84 80
127 138 147 140 133 136 136 139 132 143 144 149 152 121 123 146 129 121 123 123 116 121 105 122 127 109 125 124 132 126 125 120 126 116 116 96 98 8 19 30 47 67 73 85 88 87 80 84 56 84 85 82 65 76
143 112 142 152 114 147 102 102 129 148 137 143 146 110 132 142 125 102 110 131 119 12 136 117 122 133 125 133 133 119 130 116 128 122 110 13 29 94 102 95 100 74 59 88 88 86 57 80 47 78 74 72 70 71
149 137 146 104 160 157 149 159 154 143 109 146 128 160 157 149 144 140 116 124 93 127 118 133 136 117 130 134 134 131 133 129 119 107 61 124 21 104 122 120 107 102 106 103 97 91 79 72 73 72 70 72 70 75
110 140 132 136 138 146 109 149 145 130 112 135 116 137 109 110 97 106 105 104 139 118 86 114 101 134 133 133 134 130 118 104 111 107 68 101 61 93 80 77 76 75 76 72 79 75 71 73 70 68 68 69 74 75
130 133 130 130 134 134 130 122 126 138 149 123 150 117 135 144 131 136 128 128 129 114 112 115 121 110 111 115 109 109 111 106 96 112 98 89 97 83 87 62 64 60 57 60 58 57 56 54 64 65 70 65 71 61
69 105 84 121 75 81 85 120 79 126 87 76 99 77 82 106 106 109 112 109 115 114 115 115 111 104 105 103 97 85 98 79 80 78 77 87 71 65 59 56 54 53 54 55 54 52 50 53 53 68 62 66 59 55
122 121 85 124 124 124 129 131 131 127 134 132 102 102 112 114 104 99 115 104 105 105 104 107 108 105 98 94 87 78 79 80 78 76 72 72 67 59 53 53 53 54 55 52 49 48 47 48 50 55 57 55 62 59
98 99 101 98 102 96 127 121 120 120 121 117 112 107 105 101 98 96 96 97 99 106 106 95 93 88 83 62 79 82 80 79 73 71 70 66 64 59 55 56 56 57 56 51 50 50 47 51 51 51 51 59 28 48
100 100 100 102 107 114 116 115 114 114 113 110 108 104 103 102 100 98 96 96 98 100 96 84 80 80 83 85 88 86 80 77 73 69 67 71 65 62 59 59 60 57 55 55 54 54 54 55 58 54 38 26 46 32
98 96 99 102 108 110 111 110 108 107 106 106 105 106 102 98 99 98 102 105 107 102 90 87 87 90 93 93 87 81 76 72 64 64 63 62 68 61 63 64 62 60 61 60 60 61 61 39 56 27 43 45 35 47
38 35 37 46 52 54 55 50 52 51 48 41 38 33 46 46 45 48 50 51 48 46 48 46 45 47 50 54 56 60 65 70 78 76 73 71 64 73 72 68 65 62 64 56 38 40 33 29 26 49 49 45 45 41
27 33 42 46 50 51 51 45 44 43 42 32 30 35 34 37 40 44 44 41 35 35 40 41 42 45 50 52 53 55 53 50 48 48 48 48 46 43 46 46 45 44 42 43 45 42 35 39 50 47 49 48 39 38
31 35 40 42 44 46 43 40 36 46 30 30 29 30 30 33 41 39 35 25 31 37 39 40 42 44 44 44 47 49 48 46 45 44 45 46 45 43 48 46 48 46 47 49 49 44 46 49 48 49 47 48 46 48
31 37 37 40 40 39 37 33 30 30 26 20 25 28 32 33 33 27 21 28 35 37 38 38 41 42 43 45 45 43 44 44 44 42 44 45 44 44 44 43 44 51 53 47 55 50 55 50 49 44 47 52 49 51
32 32 32 30 32 32 28 24 18 20 24 25 23 23 25 26 25 21 23 30 34 36 37 39 40 41 42 42 42 43 45 45 44 41 41 43 42 42 40 41 45 49 55 58 48 53 52 54 49 53 57 55 51 48
12 18 19 19 18 20 21 26 23 18 19 20 18 19 21 20 20 22 28 32 34 36 37 38 39 40 41 41 40 43 45 45 42 40 40 41 39 39 36 43 49 46 51 48 57 57 53 55 59 57 65 56 54 51
14 12 17 23 23 17 16 16 17 18 16 18 20 20 20 23 26 26 27 29 31 33 34 34 35 36 37 38 39 39 41 40 40 40 39 40 39 35 34 38 53 53 55 59 58 57 54 58 57 69 59 61 61 56
16 17 16 20 18 18 17 18 18 19 20 20 20 22 22 24 25 26 27 29 31 33 34 35 36 38 39 40 40 40 41 40 38 41 38 38 41 35 35 43 48 56 57 49 49 53 64 66 62 65 61 61 55 56
18 19 18 18 17 18 21 22 23 25 26 26 26 26 26 26 27 28 30 30 32 32 33 33 34 34 35 36 37 39 41 41 39 38 35 35 39 36 40 46 52 53 55 52 57 66 69 66 61 68 65 63 62 59
21 22 23 24 24 26 27 28 29 30 30 29 29 29 29 29 29 30 31 32 33 34 34 34 35 37 38 38 39 37 39 41 41 41 36 35 38 38 39 43 53 52 58 61 65 68 65 64 63 65 67 64 67 67
17 27 28 28 29 30 30 30 30 30 30 30 31 32 33 33 32 33 35 36 37 36 35 34 34 33 32 32 31 32 31 31 35 33 36 32 40 40 40 45 51 56 59 68 66 67 71 66 67 71 73 68 67 68
13 16 16 17 19 22 24 30 30 29 30 30 28 26 26 28 27 28 29 30 30 31 32 33 31 28 26 26 26 26 28 28 28 31 32 30 43 45 45 45 53 61 62 72 68 72 65 76 80 73 68 67 70 75
Wind_Direction
246 236 255 256 241 243 239 258 258 246 261 254 262 269 268 273 275 285 276 288 282 302 287 288 287 289 284 296 310 298 301 310 304 289 309 292 304 298 308 304 305 314 309 309 315 309 302 299 321 322 325 327 338 334
255 255 252 257 250 244 246 266 255 250 255 252 254 254 269 279 254 280 253 271 296 300 292 290 290 276 300 292 298 282 285 277 281 284 290 310 292 316 298 301 306 310 308 315 303 310 296 330 301 314 323 332 331 344
250 242 245 255 254 261 263 247 267 260 270 276 270 278 258 278 277 250 267 270 279 287 295 267 275 278 274 292 284 273 272 282 274 286 314 287 317 318 296 296 303 304 310 306 300 313 317 309 311 317 327 327 326 332
256 250 256 254 256 261 261 258 266 267 264 265 265 264 265 281 263 273 274 271 269 283 285 271 264 268 266 277 282 274 273 310 295 280 307 301 293 294 303 313 314 299 306 300 310 312 311 310 314 314 329 327 320 327
257 253 254 251 255 262 255 257 255 264 250 271 263 271 262 266 273 260 266 261 274 281 253 256 260 278 294 278 271 300 278 279 282 308 289 288 289 302 298 307 300 299 322 300 308 310 328 325 309 320 314 321 317 327
259 259 253 244 250 253 262 264 264 268 269 252 260 256 261 278 265 267 279 277 279 286 289 279 260 291 296 270 284 274 277 281 308 284 297 301 301 299 313 309 283 290 305 311 311 304 302 303 322 313 318 311 313 317
264 260 265 257 260 268 266 265 268 266 271 256 280 273 269 267 266 267 280 268 275 279 281 275 289 274 275 282 293 294 291 275 278 282 292 292 299 306 306 277 293 288 299 301 304 302 303 307 315 314 312 311 313 314
266 266 268 269 270 267 275 276 260 277 259 278 276 280 276 265 279 289 277 272 265 272 289 298 272 271 277 289 269 269 282 286 289 288 290 291 294 305 291 295 291 297 295 299 304 313 313 311 313 316 306 307 308 319
268 270 270 271 274 267 259 263 280 277 282 283 281 282 275 268 266 267 286 277 290 290 280 296 275 299 290 279 277 284 288 275 279 282 290 293 304 289 295 285 262 280 311 307 294 309 302 311 309 309 305 303 304 307
266 268 272 272 254 255 278 277 281 283 280 282 284 284 283 285 278 287 289 288 291 271 280 300 294 292 270 276 269 278 278 280 286 286 295 298 300 276 105 283 309 300 307 313 292 292 306 303 298 297 297 299 303 304
268 268 268 270 272 268 276 277 279 279 276 278 265 277 266 267 277 269 288 290 277 289 280 274 282 283 281 283 287 274 278 292 292 287 286 286 293 302 283 275 270 285 285 295 284 286 291 292 290 291 294 298 301 303
265 269 269 270 270 271 273 274 276 279 279 279 279 270 268 280 279 274 287 292 291 291 276 274 278 287 274 279 288 283 279 288 296 290 291 294 278 241 263 272 287 297 287 282 282 280 286 283 309 295 290 294 304 299
267 264 269 269 268 271 263 264 273 277 276 276 276 259 275 278 279 269 286 289 283 353 285 283 270 282 271 285 287 277 285 284 289 294 294 276 310 292 292 291 289 295 303 279 280 277 283 279 297 280 285 293 300 304
263 264 264 257 267 267 269 270 271 272 259 274 268 275 276 280 280 281 277 278 282 280 275 284 284 273 281 283 284 287 287 288 292 292 286 289 293 292 291 290 290 290 290 291 289 287 279 278 277 277 285 291 298 294
258 259 263 260 267 269 257 271 267 264 260 266 266 270 270 276 275 277 275 277 279 273 268 275 278 278 277 278 279 281 283 296 298 287 281 282 288 288 291 291 290 289 288 290 286 287 284 272 279 283 285 290 289 292
259 259 261 261 262 262 262 262 263 268 268 264 269 275 280 277 274 277 276 275 275 275 274 274 278 273 272 273 275 283 285 284 283 279 281 284 285 288 288 289 288 289 289 287 286 284 283 280 290 287 285 289 289 291
264 258 263 263 266 262 266 265 266 268 270 265 270 269 268 271 271 272 271 271 276 272 272 273 275 275 275 276 279 287 282 281 278 278 281 283 285 286 288 288 284 283 284 286 288 287 285 278 278 280 280 284 287 288
257 259 262 261 261 262 264 264 265 265 266 270 277 276 272 274 272 269 276 270 270 271 271 272 271 271 274 279 280 280 276 273 275 276 278 280 282 283 283 281 279 280 282 284 287 288 285 278 275 277 279 281 282 284
257 257 255 258 259 265 261 261 263 263 265 268 272 273 272 272 271 269 268 267 267 269 271 270 272 276 277 274 272 269 271 273 273 274 277 278 278 279 278 277 277 279 282 284 284 282 279 277 278 278 277 276 288 294
256 256 256 257 257 259 260 261 262 265 267 270 270 271 271 270 270 269 268 267 266 266 268 274 276 274 270 268 268 268 270 272 274 276 275 274 281 279 276 275 277 277 278 280 280 278 277 277 275 279 274 279 293 269
256 257 257 256 256 258 260 263 265 267 269 270 270 269 268 268 270 270 269 268 267 271 272 270 266 266 266 265 266 270 272 274 277 276 276 279 277 274 267 270 271 272 273 278 276 276 279 256 280 244 276 285 276 286
232 220 224 235 244 251 255 254 259 265 265 271 266 264 263 267 273 277 277 267 261 257 259 258 254 252 251 256 259 263 265 270 271 271 273 274 273 274 274 273 271 272 275 266 253 252 228 219 226 275 269 278 272 274
226 225 236 244 250 254 258 260 263 264 263 258 254 263 270 274 274 270 266 262 260 252 249 247 246 248 249 253 257 263 263 263 262 261 263 265 267 267 266 269 260 247 237 231 224 250 227 240 263 253 252 264 265 275
233 236 244 250 253 258 263 267 273 266 256 254 261 267 269 273 277 260 260 259 252 246 246 246 246 248 252 254 255 257 259 260 261 262 264 265 266 263 268 263 246 244 256 214 260 224 230 244 252 250 253 258 271 267
237 245 248 255 256 259 263 265 254 246 252 252 256 265 266 260 259 259 246 240 244 245 244 244 246 247 248 251 253 256 258 260 262 262 263 266 268 267 263 264 239 229 223 240 217 250 230 245 260 234 247 247 269 268
231 244 252 248 253 257 245 243 234 230 231 239 253 248 250 255 259 254 244 240 243 245 246 248 250 251 251 252 253 257 261 263 264 266 267 266 265 265 262 239 230 241 229 220 249 237 252 242 240 250 243 265 250 256
273 285 271 258 243 229 218 221 227 239 242 242 244 248 249 252 249 240 239 240 243 247 251 253 255 256 259 261 258 261 264 268 268 265 262 263 264 259 256 228 231 237 230 244 228 224 226 231 236 253 240 258 252 253
221 216 225 230 229 232 236 239 243 245 247 246 242 241 242 240 236 237 242 245 249 253 257 260 263 265 265 266 265 265 266 264 266 263 258 264 260 255 249 232 229 230 228 218 214 221 240 234 247 238 258 249 254 250
229 229 233 240 243 243 241 242 245 247 246 249 250 251 253 252 252 254 255 256 257 259 260 261 262 264 266 266 266 266 267 266 259 270 254 263 255 248 243 237 226 221 220 235 242 254 230 233 236 238 239 244 248 250
257 255 251 245 240 241 244 245 246 249 248 248 250 250 252 254 256 257 258 260 262 264 267 269 270 270 270 271 272 273 273 271 270 270 262 266 248 240 238 241 236 226 228 245 246 226 228 237 234 234 241 241 247 256
263 260 259 259 257 255 253 253 252 253 254 256 256 257 258 259 260 262 264 266 267 269 270 272 273 274 274 276 276 274 272 269 267 266 262 259 245 238 237 231 224 245 228 226 226 222 232 231 238 239 241 250 248 250
274 259 258 257 257 257 255 257 259 262 265 266 266 266 266 267 268 268 268 268 269 275 276 278 279 278 277 276 274 274 272 269 267 265 257 255 237 232 235 232 226 240 226 219 225 228 229 238 238 241 241 244 250 255
294 292 277 269 266 266 266 264 265 265 265 265 266 268 268 269 269 269 268 270 272 273 275 274 271 269 271 272 271 270 269 267 265 260 256 249 235 230 229 236 229 229 225 222 228 228 241 237 237 238 244 252 253 253